Location: Buckhorn Peak
(37.6641°N, 120.1241°W)
Time: 19:12:22
(UTC+00:00)

Hubble Space Telescope - Pass Details

Date: 15 December 2025
Orbit: 479 x 481 km, 28.5° (Epoch: 22 January)

Event Time Altitude Azimuth Distance (km) Brightness Sun altitude
Rises 02:10:36 0° 250° (WSW) 2,532 6.0 -16.8°
Reaches altitude 10° 02:13:15 10° 232° (SW) 1,652 4.3 -17.3°
Maximum altitude 02:16:00 19° 186° (S) 1,195 2.8 -17.8°
Enters shadow 02:18:10 13° 146° (SSE) 1,493 2.8 -18.2°
